TIME,DELAY(SENSOR),PRES,OXYGEN,RAWTEMP,T(OPTODE),TCPHASE,FLUOR,BETA(BETA700),BETA(BETA412),BETA(BETA440),CDOM,C(CSC),ED(ED411.90),ED(ED443.80),ED(ED489.40),ED(ED554.70),LU(LU412.20),LU(LU443.80),LU(LU489.40),LU(LU555.00),COMP,TILTX,TILTY,CHECK
1346277392,5803,910.4600219726562000,171.2250976562500000,399.5780944824219000,10.9940299987792970,38.6927108764648440,51,106,99,83,72,15462,2147455835,2147787035,2147576091,2147818029,2147307940,2147461129,2147742390,2148264347,2532,6,14,58493
1346280988,5804,10.3000001907348630,182.2388000488281200,487.8243103027344000,8.2607774734497070,39.3998718261718750,51,109,101,83,74,15448,2147441325,2147794166,2147584457,2147829906,2147302610,2147455716,2147752274,2148273984,630,6,14,39242
1346284588,5803,1321.0000000000000000,193.8686981201172000,502.0300903320312500,7.8165678977966310,38.8843612670898440,50,106,102,81,74,15446,2147439872,2147794980,2147584411,2147829412,2147310747,2147454052,2147759835,2148275867,216,6,14,55766
1346288188,5804,1053.0000000000000000,194.5820007324218800,502.0281982421875000,7.8166279792785645,38.8390312194824200,51,104,101,83,74,15427,2147435648,2147794377,2147583305,2147830034,2147302445,2147452772,2147758628,2148278326,393,6,14,891
1346291788,5805,14.8999996185302730,194.3764038085937500,502.4726867675781000,7.8027091026306150,38.8602409362793000,51,105,100,82,75,15425,2147435108,2147795126,2147582500,2147830912,2147304182,2147451209,2147759808,2148275227,568,6,14,37250
1346295388,5802,14.1999998092651370,193.3842010498047000,501.0642089843750000,7.8468141555786130,38.8986816406250000,51,106,101,82,75,15425,2147439616,2147796635,2147584246,2147833133,2147306166,2147453275,2147753764,2148277238,619,6,14,57813
1346298988,5801,1032.0000000000000000,193.3493957519531200,501.6492004394531000,7.8284969329833980,38.9115409851074200,50,105,102,81,75,15393,2147440201,2147795382,2147581851,2147830683,2147304292,2147452416,2147758976,2148278025,1023,6,14,54974
1346302588,5800,10.6999998092651370,192.5361022949218800,501.8305053710937500,7.8228211402893070,38.9657592773437500,52,106,100,82,75,15424,2147437851,2147793380,2147582345,2147826386,2147305298,2147452571,2147757476,2148279396,3086,6,14,18031
1346306188,5808,13.3999996185302730,188.2129974365234400,493.0640869140625000,8.0970859527587890,39.0935783386230500,53,108,101,83,75,15433,2147438619,2147794386,2147583606,2147827702,2147302262,2147451062,2147757293,2148274898,47,6,14,39786
1346309788,5805,10.1000003814697270,187.0310974121093800,493.4189147949219000,8.0859956741333000,39.1772003173828100,51,105,99,84,74,15434,2147440374,2147796754,2147582290,2147827776,2147306706,2147452982,2147757449,2148276041,157,6,14,32406
1346313388,5806,12.3999996185302730,187.2944946289062500,492.8931884765625000,8.1024255752563480,39.1501502990722660,52,111,99,82,75,15429,2147440749,2147793536,2147583780,2147829266,2147306112,2147452873,2147755136,2148274898,24,6,14,35362
1346316988,5801,1005.0000000000000000,187.4866943359375000,492.7394104003906000,8.1072330474853520,39.1357612609863300,50,106,100,82,76,15432,2147439085,2147792448,2147584274,2147828745,2147302912,2147453531,2147758537,2148280365,3459,6,14,22114
1346320588,5803,13.3999996185302730,186.8182067871093800,493.2587890625000000,8.0909996032714840,39.1877288818359400,50,106,102,90,75,15428,2147438875,2147790226,2147587318,2147827684,2147305901,2147452269,2147756708,2148275986,312,6,14,46408
1346324188,5802,12.1000003814697270,186.7492065429687500,493.9538879394531000,8.0692701339721680,39.2047004699707000,51,105,101,82,75,15424,2147438848,2147793060,2147583460,2147826715,2147303396,2147452260,2147757705,2148277293,479,6,14,35401
1346327788,5806,1099.0000000000000000,187.1470031738281200,493.8475036621094000,8.0725984573364260,39.1770210266113300,51,110,100,82,75,15430,2147438372,2147793298,2147581202,2147825929,2147304420,2147451684,2147757869,2148279414,714,6,14,18054
1346331388,5806,1323.0000000000000000,187.1712036132812500,494.8580932617187500,8.0410003662109380,39.1929893493652340,50,107,101,83,75,15423,2147442185,2147792740,2147584475,2147828196,2147308114,2147454464,2147759113,2148278884,788,6,14,11075
1346334988,5804,13.8999996185302730,189.1083068847656200,494.7723083496094000,8.0436811447143550,39.0641288757324200,51,108,101,82,74,15425,2147437933,2147791853,2147583442,2147829705,2147305188,2147449216,2147751661,2148275337,3076,6,14,14521
1346338588,5803,1002.0000000000000000,188.9918975830078000,494.8893127441406000,8.0400247573852540,39.0742416381835940,52,106,101,82,75,15423,2147439405,2147794276,2147583250,2147828608,2147304868,2147458340,2147759753,2148277156,3337,6,14,33315
1346342188,5804,10.0000000000000000,182.1741027832031200,489.5932922363281000,8.2055339813232420,39.4347610473632800,51,108,102,83,76,15423,2147440950,2147791259,2147582857,2147827922,2147303003,2147456923,2147754157,2148275456,3494,6,14,54311
1346345788,5803,11.1000003814697270,181.0713043212890600,488.4443969726562500,8.2414140701293950,39.4903717041015600,51,107,101,82,75,15419,2147438866,2147795602,2147582875,2147825481,2147303542,2147454665,2147756608,2148276114,3493,6,14,11894
1346349388,5804,10.1000003814697270,181.0724945068359400,486.3800964355469000,8.3058614730834960,39.4537887573242200,51,109,103,82,75,15416,2147441481,2147793252,2147585115,2147827803,2147303552,2147458139,2147755099,2148279753,213,6,14,29214
1346352988,5806,10.0000000000000000,179.9248046875000000,485.8676147460937500,8.3218603134155270,39.5233917236328100,51,107,102,82,75,15416,2147439497,2147793097,2147581595,2147826441,2147307574,2147456950,2147754669,2148274998,411,6,14,41482
1346356588,5806,1073.0000000000000000,179.9060058593750000,487.3346862792969000,8.2760620117187500,39.5503883361816400,51,108,103,83,74,15410,2147441536,2147794450,2147583323,2147828461,2147306422,2147450998,2147757723,2148272685,126,6,14,54691
1346360188,5805,1176.0000000000000000,180.5848999023437500,487.7388916015625000,8.2634410858154300,39.5109596252441400,51,108,102,83,76,15415,2147439003,2147795565,2147582994,2147826614,2147305737,2147455030,2147753545,2148276224,597,6,14,49153
1346363788,5805,11.1999998092651370,181.4750976562500000,488.5105895996094000,8.2393474578857420,39.4638786315918000,51,107,102,83,74,15396,2147439597,2147793088,2147586788,2147827190,2147306377,2147451318,2147753252,2148278235,442,6,14,21309
1346367388,5805,1095.0000000000000000,181.2718048095703000,490.7958984375000000,8.1679668426513670,39.5170402526855500,52,108,102,83,74,15394,2147438208,2147793289,2147581961,2147825636,2147305472,2147450368,2147759552,2148277238,484,6,14,18133
1346370988,5804,11.8000001907348630,186.4671020507812500,491.3753967285156000,8.1498584747314450,39.1787300109863300,51,107,101,83,75,15392,2147444297,2147793398,2147581458,2147829586,2147306441,2147453952,2147757979,2148276516,3062,6,14,46187
1346374588,5803,10.3000001907348630,183.6437072753906200,489.5957946777344000,8.2054529190063480,39.3361091613769500,51,106,100,82,75,15394,2147441572,2147795200,2147583808,2147826770,2147307273,2147453659,2147756891,2148277632,3407,6,14,38325
1346378188,5803,10.6999998092651370,183.2127990722656200,488.7661132812500000,8.2313661575317380,39.3502616882324200,51,112,102,83,74,15381,2147439158,2147792164,2147579355,2147826505,2147304329,2147456292,2147755913,2148280566,3084,6,14,46380
1346381788,5804,10.6999998092651370,183.7033996582031200,489.1647033691406000,8.2189197540283200,39.3241081237793000,52,107,101,81,74,15385,2147441718,2147790921,2147583643,2147829147,2147307072,2147456585,2147760338,2148275492,3416,6,14,19102
1346385388,5801,11.3000001907348630,183.8128051757812500,489.2619018554687500,8.2158832550048830,39.3191299438476560,51,108,101,82,75,15377,2147438025,2147790875,2147580470,2147827547,2147305755,2147456009,2147756818,2148276416,3096,6,14,14660
1346388988,5803,11.1999998092651370,183.3952026367187500,490.9719848632812500,8.1624641418457030,39.3758888244628900,51,123,102,83,75,15359,2147439314,2147792658,2147586651,2147828562,2147302573,2147453760,2147758326,2148271515,3290,6,14,7585
1346392588,5804,1203.0000000000000000,183.3155975341797000,489.4107055664062500,8.2112350463867190,39.3552513122558600,51,110,100,83,74,15356,2147440521,2147790180,2147584365,2147826715,2147305225,2147453906,2147751232,2148274340,3514,6,14,42549
1346396188,5806,1097.0000000000000000,183.2216949462890600,489.3341064453125000,8.2136287689208980,39.3602485656738300,51,109,101,82,75,15357,2147438628,2147794294,2147583707,2147830125,2147304045,2147453165,2147759963,2148276836,270,6,14,12136
1346399788,5806,12.6999998092651370,183.9058990478515600,489.4277038574219000,8.2107038497924800,39.3154792785644500,51,109,101,83,74,15355,2147438930,2147791369,2147582564,2147828553,2147302363,2147455634,2147756141,2148276379,443,6,14,38557
1346403388,5803,12.0000000000000000,183.6239013671875000,489.5599060058594000,8.2065763473510740,39.3363609313964840,51,106,102,84,75,15359,2147439926,2147791515,2147581558,2147827776,2147306395,2147452681,2147756352,2148275584,211,6,14,61938
1346406988,5805,1080.0000000000000000,183.8168945312500000,490.2190856933594000,8.1859874725341800,39.3348503112793000,52,108,101,82,75,15357,2147439323,2147796425,2147583369,2147824950,2147305472,2147453750,2147761106,2148274870,201,6,14,30517
1346410588,5805,1003.0000000000000000,183.4394989013672000,489.7489013671875000,8.2006711959838870,39.3526687622070300,51,106,101,82,75,15356,2147438646,2147789074,2147582966,2147828297,2147306541,2147453129,2147758427,2148274761,522,6,14,12866
1346414188,5805,11.3000001907348630,183.4886932373047000,490.5639953613281000,8.1752109527587890,39.3634109497070300,51,105,102,83,75,15357,2147437714,2147794514,2147582418,2147826980,2147305782,2147451894,2147754971,2148276507,83,6,14,58339
1346417788,5804,12.3000001907348630,182.7704925537109400,490.6260070800781000,8.1732721328735350,39.4119911193847660,51,108,100,82,76,15353,2147441636,2147788681,2147580818,2147827355,2147304566,2147454802,2147761426,2148278528,80,6,14,37117
1346419856,5803,11.6000003814697270,182.9019012451172000,490.6380920410156000,8.1728963851928710,39.4045410156250000,51,105,102,82,75,15356,2147440987,2147790893,2147580653,2147828233,2147307437,2147456484,2147756891,2148276964,430,6,14,12779
